SL-8 DEB, 1480

Orbit data source: Space-Track

SL-8 DEB, 1480 is space debris in LEO originally from a launch on Mon, 15 Mar 1965 UTC launched from the Tyuratam Missile And Space Complex (TTMTR). Debris objects in space refer to the collection of defunct objects orbiting the Earth. Examples of debris include non-operational satellites, rocket bodies, and fragments generated from explosions, collisions, or faulty payload assembly.

Loading next visibility...
Identifier
1480, 1965-020BE
Orbit
LEO
Country
Flag of CISCIS
Related business
Manufacturer
Unknown
Mission
Spacecraft
Bus & Motor
Unknown
Mass
Unknown
Launch date (UTC)
1965-03-15 (61 years ago)
Launch vehicle
Unknown
Launch site
Tyuratam Missile And Space Complex (TTMTR)
Object type
Payload
Rocket body
Debris
Shape & HBR
Unknown shape, 0.1 m
Radar Cross Section
Medium (>0.1 m² and <1 m²)

Expand to show TLE details & history
Last TLE update: 10 hours ago

TLE from 10 hours ago
0 SL-8 DEB
1  1480U 65020BE  26177.70762634 -.00000256  00000-0 -20286-3 0  9990
2  1480  56.0704 309.8327 0834142  97.3038 272.3355 12.64487135811324
Epoch: 2026-06-26T16:58Z
TLE epoch observation values (Epoch: 2026-06-26T16:58:58.915Z)
Latitude
-0.00005°
Longitude
140.25492°
Altitude
1,433.19 km
Speed
7.133 km/s
True Right ascension
20h 39m 19s
True Declination
0° 00' 00"
Sunlit
Object was in full shadow at epoch
Visualization orbit readout
Latitude
Unknown
Longitude
Unknown
Altitude
Unknown
Speed
Unknown
Apparent Right ascension
Unknown
Apparent Declination
Unknown
Sunlit
N/A
Visualization observer readout
Local Sidereal Time
13:55:41
Azimuth
Unknown
Elevation
Unknown
Doppler factor
Unknown
Orbital elements
Apogee altitude
2,053.462 km
Perigee altitude
755.131 km
Semi-major axis
7,782.433 km
Eccentricity
0.08341
Inclination
56.0704°
RAAN
309.8327°
Arg. of periapsis
97.3038°
True anomaly
262.78852°
Mean anomaly
272.3355°
Eccentric anomaly
267.56055°
Mean motion
3.16133 °/min
Orbital period
113.88 mins
BSTAR
-0.00020286
Loading maneuver chart data...
Computing Atmospheric mass density...

Documentation

Showing up to 5 results
|